Orbital Elements at Epoch 2459000.5 (2020-May-31.0) TDB
Reference: JPL 5 (heliocentric ecliptic J2000)
Element | Value | Uncertainty (1-sigma) | Units |
e | .1296004197377338 | 0.00020321 | |
a | 1.054290554380253 | 0.00010713 | au |
q | .9176540560070438 | 0.000121 | au |
i | 1.851963121555853 | 0.0028846 | deg |
node | 213.1397699952245 | 0.0056426 | deg |
peri | 134.2093742101405 | 0.014585 | deg |
M | 276.6095916366608 | 0.031739 | deg |
tp | 2459092.090936597327 (2020-Aug-30.59093660) | 0.020901 | TDB |
period | 395.4020351042349 1.08 | 0.060269 0.000165 | d yr |
n | .9104657235896566 | 0.00013878 | deg/d |
Q | 1.190927052753461 | 0.00012102 | au |
|
| | Orbit Determination Parameters
Additional Information
|